Flag for France Weather past 2 weeks in Reims, France

Now
43 °F

Passing clouds.


Feels Like: 35 °F
Forecast: 42 / 50 °F
Wind: 15 mph from West

Location: Chalons-Vatry

Current Time: Apr 1, 2015 at 3:33:32 AM

Latest Report: Apr 1, 2015 at 3:00 AM


Visibility: N/A

Pressure: 30.15 "Hg

Humidity: 76%

Dew point: 36 °F

Location of ReimsLocation

Historic Weather in Reims — Graph

°F

Reims temperature yesterday

Maximum temperature yesterday: 55 °F (at 12:00 PM)
Minimum temperature yesterday: 45 °F (at 11:30 PM)
Average temperature yesterday: 52 °F

Past Weeks' High & Low Weather Summary

 TemperatureHumidityPressure
High63 °F (Mar 17, 3:30 PM)100% (Mar 17, 5:00 AM)30.33 "Hg (Mar 17, 5:00 AM)
Low28 °F (Mar 23, 6:00 AM)42% (Mar 17, 3:00 PM)29.65 "Hg (Mar 30, 1:30 AM)
Average45 °F82%30.02 "Hg
* Reported Mar 17 1:00 AM — Apr 1 2:30 AM, Reims, Weather by CustomWeather, © 2015

Note: Actual official high and low records may vary slightly from our data, if they occured in-between our weather recording intervals... More about our weather records

Advertising

Reims weather history for previous 24 hours

 ConditionsComfort  
Time TempWeatherWind HumidityBarometerVisibility
2:30 AM
Wed, Apr 1
45 °FPassing clouds.18 mph71%30.12 "HgN/A
2:00 AM43 °FPassing clouds.18 mph76%30.12 "HgN/A
1:30 AM45 °FPartly cloudy.23 mph71%30.12 "HgN/A
1:00 AM45 °FPassing clouds.21 mph71%30.12 "HgN/A
12:30 AM45 °FPassing clouds.20 mph66%30.12 "HgN/A
12:00 AM45 °FPassing clouds.24 mph66%30.09 "HgN/A
11:30 PM
Tue, Mar 31
45 °FPassing clouds.16 mph66%30.09 "HgN/A
11:00 PM46 °FClear.21 mph62%30.09 "HgN/A
10:30 PM46 °FClear.22 mph62%30.09 "HgN/A
10:00 PM46 °FClear.24 mph57%30.07 "HgN/A
9:30 PM46 °FPassing clouds.21 mph62%30.07 "HgN/A
9:00 PM46 °FClear.20 mph62%30.07 "HgN/A
8:30 PM48 °FClear.17 mph58%30.04 "HgN/A
8:00 PM48 °FClear.18 mph62%30.04 "HgN/A
7:30 PM50 °FClear.23 mph54%30.04 "HgN/A
7:00 PM54 °FClear.28 mph47%30.01 "HgN/A
6:30 PM54 °FClear.21 mph54%30.01 "HgN/A
6:00 PM54 °FClear.26 mph51%29.98 "HgN/A
5:30 PM55 °FScattered clouds.26 mph51%29.98 "HgN/A
5:00 PM54 °FPartly sunny.26 mph58%29.98 "HgN/A
4:30 PM48 °FLight rain. Partly sunny.28 mph82%29.98 "HgN/A
4:00 PM54 °FPartly sunny.33 mph58%29.95 "HgN/A
3:30 PM55 °FPartly sunny.29 mph55%29.95 "Hg6 mi
3:00 PM55 °FPartly sunny.31 mph59%29.92 "Hg4 mi
2:30 PM54 °FMostly cloudy.31 mph58%29.92 "Hg4 mi
2:00 PM54 °FBroken clouds.32 mph58%29.92 "HgN/A
1:30 PM55 °FPartly sunny.31 mph59%29.89 "Hg5 mi
1:00 PM52 °FMostly cloudy.35 mph67%29.89 "HgN/A
12:30 PM54 °FBroken clouds.33 mph63%29.89 "HgN/A
12:00 PM55 °FPartly sunny.35 mph63%29.86 "HgN/A
11:30 AM52 °FPartly sunny.29 mph82%29.83 "HgN/A
11:00 AM52 °FMostly cloudy.29 mph82%29.83 "HgN/A
10:30 AM52 °FBroken clouds.28 mph82%29.80 "HgN/A
10:00 AM52 °FPartly sunny.29 mph77%29.80 "HgN/A
9:30 AM52 °FBroken clouds.25 mph82%29.80 "HgN/A
9:00 AM50 °FLight rain. Mostly cloudy.32 mph94%29.80 "Hg5 mi
8:30 AM50 °FLight rain. Fog.29 mph94%29.77 "Hg2 mi
8:00 AM50 °FMostly cloudy.32 mph94%29.77 "HgN/A
7:30 AM50 °FLight rain. Fog.31 mph94%29.74 "Hg2 mi
7:00 AM52 °FMostly cloudy.30 mph82%29.71 "HgN/A
6:30 AM52 °FPartly cloudy.32 mph82%29.71 "HgN/A
6:00 AM52 °FOvercast.31 mph82%29.71 "HgN/A
5:30 AM54 °FPartly cloudy.32 mph82%29.74 "HgN/A
5:00 AM54 °FMostly cloudy.33 mph82%29.74 "HgN/A
4:30 AM54 °FOvercast.30 mph88%29.74 "HgN/A
4:00 AM52 °FMostly cloudy.29 mph100%29.77 "HgN/A
3:30 AM52 °FMostly cloudy.28 mph100%29.80 "HgN/A
3:00 AM52 °FFog.29 mph100%29.80 "Hg2 mi
Weather by CustomWeather, © 2015

See weather overviewHow to use our weather pages